N395T KISP-7B2

Flight info

Callsign N395T
Flight time N/A
Altitude 15000
Route BDR CTR
Aircraft PC12/L-SDFGRWY/S

Departure

Time 2026-04-22 18:36
Airport Long Island MacArthur Airport (KISP)

Arrival

Time N/A
Airport 7B2
Time Latitude Longitude Altitude Speed Heading
2026-04-22 18:21 40.80084 -73.10838 100 ft 0 kts
2026-04-22 18:34 40.80101 -73.10832 95 ft 8 kts 45°
2026-04-22 18:34 40.80102 -73.10763 95 ft 7 kts 99°
2026-04-22 18:34 40.80134 -73.10712 95 ft 10 kts 27°
2026-04-22 18:35 40.80161 -73.10656 93 ft 5 kts 103°
2026-04-22 18:35 40.80154 -73.10642 94 ft 0 kts 137°
2026-04-22 18:35 40.80053 -73.10510 97 ft 47 kts 135°
2026-04-22 18:36 40.79719 -73.10068 162 ft 80 kts 134°
2026-04-22 18:36 40.79301 -73.09494 430 ft 95 kts 135°
2026-04-22 18:36 40.78847 -73.08746 804 ft 116 kts 121°
2026-04-22 18:36 40.78808 -73.07615 1407 ft 136 kts 80°
2026-04-22 18:37 40.79396 -73.06492 1861 ft 166 kts 39°
2026-04-22 18:37 40.80530 -73.05969 2299 ft 178 kts 15°
2026-04-22 18:37 40.81739 -73.05536 2720 ft 188 kts 15°
2026-04-22 18:37 40.83030 -73.05160 3122 ft 191 kts 354°
2026-04-22 18:38 40.84353 -73.05488 3449 ft 196 kts 341°
2026-04-22 18:38 40.85718 -73.05885 3757 ft 205 kts 345°
2026-04-22 18:38 40.87124 -73.06197 4107 ft 207 kts 348°
2026-04-22 18:39 40.89957 -73.06782 4827 ft 206 kts 347°
2026-04-22 18:39 40.91369 -73.07088 5223 ft 204 kts 347°
2026-04-22 18:39 40.92737 -73.07383 5620 ft 200 kts 347°
2026-04-22 18:39 40.94098 -73.07679 6026 ft 196 kts 346°
2026-04-22 18:40 40.95435 -73.07967 6437 ft 192 kts 346°
2026-04-22 18:40 40.96743 -73.08252 6837 ft 189 kts 346°
2026-04-22 18:40 40.98041 -73.08534 7222 ft 187 kts 346°
2026-04-22 18:40 40.99321 -73.08811 7623 ft 186 kts 346°
2026-04-22 18:41 41.00594 -73.09087 8023 ft 184 kts 346°
2026-04-22 18:41 41.01852 -73.09360 8423 ft 183 kts 346°
2026-04-22 18:41 41.03108 -73.09632 8840 ft 182 kts 345°
2026-04-22 18:41 41.04359 -73.09904 9256 ft 181 kts 345°
2026-04-22 18:42 41.05599 -73.10173 9680 ft 180 kts 345°
2026-04-22 18:42 41.06821 -73.10438 10095 ft 180 kts 345°
2026-04-22 18:42 41.08055 -73.10706 10478 ft 179 kts 345°
2026-04-22 18:42 41.09281 -73.10972 10871 ft 178 kts 345°
2026-04-22 18:43 41.10504 -73.11238 11261 ft 177 kts 345°
2026-04-22 18:43 41.11716 -73.11501 11660 ft 176 kts 345°
2026-04-22 18:43 41.12918 -73.11763 12061 ft 175 kts 345°
2026-04-22 18:43 41.14126 -73.12026 12474 ft 175 kts 345°
2026-04-22 18:44 41.15309 -73.12283 12880 ft 174 kts 345°
2026-04-22 18:44 41.16516 -73.12403 13300 ft 177 kts 358°
2026-04-22 18:44 41.17724 -73.12214 13722 ft 177 kts 360°
2026-04-22 18:44 41.18964 -73.12015 14134 ft 177 kts 359°
2026-04-22 18:45 41.20188 -73.11827 14518 ft 176 kts 359°
2026-04-22 18:45 41.21407 -73.11641 14904 ft 176 kts 359°
2026-04-22 18:45 41.22655 -73.11456 15006 ft 191 kts 359°
2026-04-22 18:45 41.24035 -73.11250 15008 ft 208 kts 360°
2026-04-22 18:46 41.25505 -73.11024 15009 ft 223 kts
2026-04-22 18:46 41.27083 -73.10778 15013 ft 233 kts
2026-04-22 18:46 41.28699 -73.10527 15008 ft 240 kts
2026-04-22 18:46 41.30402 -73.10265 15008 ft 245 kts
2026-04-22 18:47 41.32103 -73.10004 15009 ft 247 kts
2026-04-22 18:47 41.33817 -73.09742 14990 ft 250 kts
2026-04-22 18:47 41.35534 -73.09479 14989 ft 251 kts
2026-04-22 18:47 41.37268 -73.09213 14992 ft 251 kts
2026-04-22 18:48 41.39007 -73.08946 14992 ft 251 kts
2026-04-22 18:48 41.40679 -73.08690 14988 ft 252 kts
2026-04-22 18:48 41.42494 -73.08412 14993 ft 252 kts
2026-04-22 18:48 41.44218 -73.08147 14989 ft 252 kts
2026-04-22 18:49 41.45961 -73.07879 14990 ft 252 kts
2026-04-22 18:49 41.47700 -73.07612 14990 ft 252 kts
2026-04-22 18:49 41.49444 -73.07345 14986 ft 252 kts
2026-04-22 18:49 41.51181 -73.07078 14990 ft 252 kts
2026-04-22 18:50 41.52923 -73.06809 14991 ft 251 kts
2026-04-22 18:50 41.54666 -73.06540 14989 ft 250 kts
2026-04-22 18:50 41.56391 -73.06275 14992 ft 249 kts
2026-04-22 18:50 41.58106 -73.06011 14992 ft 248 kts
2026-04-22 18:51 41.59808 -73.05749 14992 ft 248 kts
2026-04-22 18:51 41.61526 -73.05484 14993 ft 248 kts
2026-04-22 18:51 41.63232 -73.05221 14993 ft 248 kts
2026-04-22 18:51 41.64975 -73.04951 14992 ft 248 kts
2026-04-22 18:52 41.66687 -73.04687 14991 ft 248 kts
2026-04-22 18:52 41.68381 -73.04425 14992 ft 247 kts
2026-04-22 18:52 41.70101 -73.04159 14993 ft 248 kts
2026-04-22 18:52 41.71799 -73.03896 14991 ft 248 kts
2026-04-22 18:53 41.73509 -73.03631 14992 ft 248 kts
2026-04-22 18:53 41.75215 -73.03367 14992 ft 248 kts
2026-04-22 18:53 41.76931 -73.03101 14995 ft 248 kts
2026-04-22 18:53 41.78667 -73.02832 14993 ft 248 kts
2026-04-22 18:54 41.80383 -73.02566 14992 ft 248 kts
2026-04-22 18:54 41.82077 -73.02303 14989 ft 248 kts
2026-04-22 18:54 41.83792 -73.02036 14989 ft 248 kts
2026-04-22 18:54 41.85508 -73.01769 14993 ft 248 kts
2026-04-22 18:55 41.87224 -73.01502 14982 ft 248 kts
2026-04-22 18:55 41.88943 -73.01235 14983 ft 248 kts
2026-04-22 18:55 41.90663 -73.00967 14982 ft 248 kts
2026-04-22 18:55 41.92357 -73.00703 14977 ft 248 kts
2026-04-22 18:56 41.94073 -73.00436 14985 ft 247 kts
2026-04-22 18:56 41.95788 -73.00168 14980 ft 247 kts
2026-04-22 18:56 41.97497 -72.99902 14980 ft 247 kts
2026-04-22 18:56 41.99205 -72.99635 14976 ft 247 kts
2026-04-22 18:57 42.00924 -72.99367 14977 ft 247 kts
2026-04-22 18:57 42.02616 -72.99103 14966 ft 248 kts
2026-04-22 18:57 42.04353 -72.98832 14604 ft 254 kts
2026-04-22 18:57 42.06136 -72.98553 14124 ft 260 kts
2026-04-22 18:58 42.07940 -72.98268 13617 ft 261 kts
2026-04-22 18:58 42.09732 -72.97986 13091 ft 262 kts
2026-04-22 18:58 42.11547 -72.97701 12568 ft 261 kts
2026-04-22 18:58 42.13361 -72.97418 12051 ft 261 kts
2026-04-22 18:59 42.15163 -72.97135 11548 ft 261 kts
2026-04-22 18:59 42.16963 -72.96852 11050 ft 258 kts
2026-04-22 18:59 42.18726 -72.96573 10558 ft 249 kts
2026-04-22 18:59 42.20434 -72.96304 10074 ft 244 kts
2026-04-22 19:00 42.22087 -72.96047 9537 ft 240 kts
2026-04-22 19:00 42.23747 -72.95787 9007 ft 238 kts
2026-04-22 19:00 42.25394 -72.95528 8492 ft 237 kts
2026-04-22 19:00 42.27036 -72.95270 7987 ft 237 kts
2026-04-22 19:01 42.28661 -72.95014 7490 ft 237 kts
2026-04-22 19:01 42.30271 -72.94570 6992 ft 236 kts
2026-04-22 19:01 42.31870 -72.94032 6500 ft 235 kts
2026-04-22 19:01 42.33445 -72.93505 5978 ft 229 kts
2026-04-22 19:02 42.34956 -72.93000 5519 ft 224 kts
2026-04-22 19:02 42.36449 -72.92501 5015 ft 218 kts 10°
2026-04-22 19:02 42.37891 -72.92019 4495 ft 209 kts 11°
2026-04-22 19:02 42.39274 -72.91537 3966 ft 202 kts 17°
2026-04-22 19:03 42.40517 -72.90530 3510 ft 214 kts 39°
2026-04-22 19:03 42.41694 -72.89291 3493 ft 213 kts 40°
2026-04-22 19:03 42.42866 -72.88059 3482 ft 211 kts 39°
2026-04-22 19:03 42.43997 -72.86874 3487 ft 207 kts 43°
2026-04-22 19:04 42.44827 -72.85340 3492 ft 198 kts 73°
2026-04-22 19:04 42.45021 -72.83568 3495 ft 184 kts 101°
2026-04-22 19:04 42.44669 -72.82005 3490 ft 167 kts 124°
2026-04-22 19:04 42.44020 -72.80793 3491 ft 151 kts 134°
2026-04-22 19:05 42.43348 -72.79622 3499 ft 163 kts 134°
2026-04-22 19:05 42.42649 -72.78399 3375 ft 164 kts 133°
2026-04-22 19:05 42.41975 -72.77210 3159 ft 154 kts 134°
2026-04-22 19:05 42.41322 -72.76061 2939 ft 151 kts 133°
2026-04-22 19:06 42.40686 -72.74948 2728 ft 151 kts 133°
2026-04-22 19:06 42.40045 -72.73824 2518 ft 152 kts 133°
2026-04-22 19:06 42.39388 -72.72671 2293 ft 152 kts 133°
2026-04-22 19:07 42.38185 -72.70553 1898 ft 134 kts 132°
2026-04-22 19:07 42.37622 -72.69563 1688 ft 133 kts 134°
2026-04-22 19:07 42.37055 -72.68569 1474 ft 131 kts 134°
2026-04-22 19:07 42.36546 -72.67672 1295 ft 110 kts 134°
2026-04-22 19:08 42.36123 -72.66916 1220 ft 96 kts 133°
2026-04-22 19:08 42.35714 -72.66193 1096 ft 95 kts 135°
2026-04-22 19:08 42.35316 -72.65491 916 ft 95 kts 133°
2026-04-22 19:08 42.34913 -72.64782 795 ft 94 kts 136°
2026-04-22 19:09 42.34500 -72.64091 636 ft 96 kts 134°
2026-04-22 19:09 42.34096 -72.63389 531 ft 92 kts 133°
2026-04-22 19:09 42.33839 -72.62940 451 ft 90 kts 132°
2026-04-22 19:09 42.33333 -72.62059 237 ft 88 kts 129°
2026-04-22 19:10 42.32986 -72.61446 140 ft 77 kts 128°
2026-04-22 19:10 42.32717 -72.60978 128 ft 46 kts 128°
2026-04-22 19:10 42.32566 -72.60713 125 ft 16 kts 128°
2026-04-22 19:10 42.32526 -72.60644 126 ft 4 kts 173°
2026-04-22 19:11 42.32557 -72.60699 125 ft 18 kts 311°
2026-04-22 19:11 42.32658 -72.60874 126 ft 29 kts 308°
2026-04-22 19:11 42.32778 -72.61085 127 ft 23 kts 304°
2026-04-22 19:11 42.32815 -72.61231 130 ft 18 kts 285°
2026-04-22 19:12 42.32849 -72.61392 131 ft 13 kts 286°
2026-04-22 19:12 42.32825 -72.61419 130 ft 5 kts 162°
2026-04-22 19:12 42.32805 -72.61427 129 ft 4 kts 258°
2026-04-22 19:12 42.32811 -72.61460 131 ft 0 kts 281°